Effective Sunday, March 17, 2024, the National Weather Service National Data Buoy Center will discontinue its Dial-A-Buoy Interactive Voice Response system. For more information, see Service Change Notice 24-06 (PDF).

Station MGIP4 - 9759110 - Magueyes Islands, PR Image indicating link to RSS feed of recent meteorological observations for station MGIP4


Conditions at MGIP4 as of
(6:48 pm AST)
2248 GMT on 02/29/2024:
     

Click on the graph icon in the table below to see a time series plot of the last five days of that observation.

5-day plot - Wind Direction Wind Direction (WDIR): N ( 10 deg true )
5-day plot - Wind Speed Wind Speed (WSPD): 1.9 kts
5-day plot - Wind Gust Wind Gust (GST): 4.1 kts
5-day plot - Atmospheric Pressure Atmospheric Pressure (PRES):30.04 in
5-day plot - Air Temperature Air Temperature (ATMP): 79.5 °F
5-day plot - Water Temperature Water Temperature (WTMP): 83.7 °F
5-day plot - Wind Speed at 10 Meters Wind Speed at 10 meters (WSPD10M): 3.9 kts
5-day plot - Wind Speed at 20 Meters Wind Speed at 20 meters (WSPD20M): 3.9 kts
5-day plot -  Wind Speed, Wind Gust and Atmospheric Pressure Combined plot of Wind Speed, Gust, and Air Pressure
NOS Water Level Observation Network Water Level
Previous observations
TIME
(AST)
5-day plot - Wind Direction
WDIR
 
5-day plot - Wind Speed
WSPD
kts
5-day plot - Wind Gust
GST
kts
5-day plot - Wave Height
WVHT
ft
5-day plot - Dominant Wave Period
DPD
sec
5-day plot - Average Wave Period
APD
sec
5-day plot - Mean Wave Direction
MWD
 
5-day plot - Atmospheric Pressure
PRES
in
5-day plot - Pressure Tendency
PTDY
in
5-day plot - Air Temperature
ATMP
°F
5-day plot - Water Temperature
WTMP
°F
5-day plot - Dew Point
DEWP
°F
5-day plot - Salinity
SAL
psu
5-day plot - Visibility
VIS
nmi
5-day plot - Tide (above MLLW)
TIDE
ft
2024-02-29 06:42 pm- 0.0 1.0----30.04- 80.2 83.8----
2024-02-29 06:36 pm- 0.0 1.9----30.03- 80.4 83.8----
2024-02-29 06:30 pm- 0.0 2.9----30.03- 80.4 83.7----
2024-02-29 06:24 pm S 1.0 2.9----30.03- 80.8 83.7----
2024-02-29 06:18 pm SE 1.0 1.9----30.03- 80.8 83.7----
2024-02-29 06:12 pmESE 1.9 2.9----30.03- 80.8 83.7----
2024-02-29 06:06 pmESE 1.9 4.1----30.03- 81.0 83.7----
2024-02-29 06:00 pm SE 2.9 5.1----30.03+0.00 80.8 83.7----
2024-02-29 05:54 pm SE 4.1 5.1----30.03- 80.8 83.7----
2024-02-29 05:48 pm SE 2.9 2.9----30.03- 81.0 83.7----
2024-02-29 05:42 pm S 2.9 2.9----30.03- 81.0 83.7----
2024-02-29 05:36 pmSSE 1.9 4.1----30.03- 81.0 83.7----
2024-02-29 05:30 pmSSE 1.9 4.1----30.03- 81.0 83.7----
2024-02-29 05:24 pmSSE 2.9 7.0----30.03- 81.0 83.7----
2024-02-29 05:18 pm SE 5.1 6.0----30.03- 81.1 83.7----
2024-02-29 05:12 pm SE 5.1 7.0----30.03- 81.3 83.7----
2024-02-29 05:06 pmSSE 2.9 8.9----30.03- 81.7 83.7----
2024-02-29 05:00 pm SE 5.1 6.0----30.03-0.02 81.9 83.8----
2024-02-29 04:54 pm S 4.1 5.1----30.03- 81.5 83.7----
2024-02-29 04:48 pmSSE 2.9 6.0----30.03- 81.0 84.0----
2024-02-29 04:42 pmSSE 2.9 6.0----30.03- 80.4 84.0----
2024-02-29 04:36 pm SE 5.1 7.0----30.03- 81.1 84.2----
2024-02-29 04:30 pmSSE 5.1 7.0----30.03- 81.3 84.4----
2024-02-29 04:24 pm S 6.0 8.9----30.03- 81.7 84.2----
2024-02-29 04:18 pm S 7.0 8.0----30.03- 81.5 84.2----
2024-02-29 04:12 pm S 6.0 8.0----30.03- 81.3 84.2----
2024-02-29 04:06 pm S 7.0 8.0----30.03- 81.3 84.2----
2024-02-29 04:00 pm S 7.0 8.0----30.03-0.04 81.3 84.2----
2024-02-29 03:54 pm S 6.0 8.9----30.03- 81.5 84.6----
2024-02-29 03:48 pm S 6.0 8.9----30.03- 81.7 84.4----
2024-02-29 03:42 pm S 7.0 8.9----30.03- 81.5 84.0----
2024-02-29 03:36 pm S 6.0 8.9----30.03- 81.7 84.2----
2024-02-29 03:30 pm S 8.0 9.9----30.03- 81.3 84.2----
2024-02-29 03:24 pm S 5.1 7.0----30.03- 81.5 84.7----
2024-02-29 03:18 pm S 6.0 8.0----30.03- 81.9 84.4----
2024-02-29 03:12 pm S 7.0 8.9----30.03- 81.7 84.2----
2024-02-29 03:06 pm S 8.0 9.9----30.03- 81.5 84.2----
2024-02-29 03:00 pmSSW 8.0 9.9----30.03-0.06 81.7 84.6----
2024-02-29 02:54 pmSSW 6.0 8.9----30.04- 82.0 84.4----
2024-02-29 02:48 pmSSW 7.0 8.9----30.04- 81.7 84.6----
2024-02-29 02:42 pmSSW 6.0 8.9----30.04- 82.4 84.2----
2024-02-29 02:36 pm SW 8.0 8.9----30.04- 82.2 84.2----
2024-02-29 02:30 pmSSW 8.0 8.9----30.04- 82.0 84.2----
2024-02-29 02:24 pm SW 7.0 9.9----30.04- 82.4 84.2----
2024-02-29 02:18 pmWSW 8.9 11.1----30.04- 82.4 84.0----
2024-02-29 02:12 pm SW 7.0 9.9----30.05- 82.2 84.0----
2024-02-29 02:06 pm SW 6.0 8.0----30.05- 82.6 84.0----
2024-02-29 02:00 pm SW 7.0 8.9----30.05-0.06 82.4 83.8----
2024-02-29 01:54 pm SW 6.0 8.0----30.05- 82.2 83.8----
2024-02-29 01:48 pm SW 8.0 9.9----30.05- 82.4 83.7----
2024-02-29 01:42 pm SW 7.0 8.0----30.05- 82.4 83.7----
2024-02-29 01:36 pm SW 6.0 7.0----30.06- 82.2 83.7----
2024-02-29 01:30 pmSSW 5.1 7.0----30.06- 82.0 83.5----
2024-02-29 01:24 pmWSW 7.0 9.9----30.06- 82.2 83.5----
2024-02-29 01:18 pmWSW 8.9 9.9----30.06- 81.7 83.5----
2024-02-29 01:12 pmSSW 6.0 8.0----30.06- 82.0 83.3----
2024-02-29 01:06 pmWSW 8.0 9.9----30.06- 81.7 83.3----
2024-02-29 01:00 pm SW 8.0 8.9----30.07-0.04 82.0 83.1----
2024-02-29 12:54 pm S 7.0 8.9----30.07- 81.7 83.1----
2024-02-29 12:48 pm S 7.0 8.0----30.07- 82.0 83.1----
2024-02-29 12:42 pm S 6.0 8.0----30.07- 82.0 83.1----
2024-02-29 12:36 pm S 6.0 7.0----30.07- 82.0 82.9----
2024-02-29 12:30 pm S 6.0 7.0----30.08- 81.9 82.9----
2024-02-29 12:24 pm S 7.0 7.0----30.08- 81.3 82.8----
2024-02-29 12:18 pm S 6.0 7.0----30.08- 81.3 82.8----
2024-02-29 12:12 pm S 4.1 5.1----30.09- 81.3 82.9----
2024-02-29 12:06 pm S 5.1 6.0----30.09- 81.3 82.9----
2024-02-29 12:00 pm S 5.1 6.0----30.09-0.02 81.3 82.8----
2024-02-29 11:54 am S 5.1 7.0----30.09- 81.1 82.6----
2024-02-29 11:48 amSSW 5.1 6.0----30.10- 81.0 82.6----
2024-02-29 11:42 am S 5.1 6.0----30.10- 80.8 82.6----
2024-02-29 11:36 amSSW 5.1 6.0----30.10- 80.8 82.6----
2024-02-29 11:30 amSSW 5.1 6.0----30.10- 80.6 82.4----
2024-02-29 11:24 amSSW 5.1 6.0----30.10- 80.6 82.4----
2024-02-29 11:18 amSSW 6.0 7.0----30.11- 80.4 82.4----
2024-02-29 11:12 amSSW 7.0 7.0----30.11- 80.2 82.4----
2024-02-29 11:06 am S 6.0 7.0----30.11- 80.6 82.2----
2024-02-29 11:00 amSSW 6.0 7.0----30.11+0.03 80.4 82.2----
2024-02-29 10:54 amSSW 5.1 6.0----30.11- 80.8 82.2----
2024-02-29 10:48 amSSW 5.1 5.1----30.11- 81.0 82.2----
2024-02-29 10:42 amSSW 4.1 5.1----30.11- 80.8 82.0----
2024-02-29 10:36 amSSW 4.1 5.1----30.11- 80.8 82.0----
2024-02-29 10:30 amSSW 5.1 6.0----30.11- 80.4 82.0----
2024-02-29 10:24 amSSW 5.1 5.1----30.11- 80.2 81.9----
2024-02-29 10:18 amSSW 4.1 5.1----30.11- 80.4 81.9----
2024-02-29 10:12 amSSW 4.1 5.1----30.11- 80.2 81.9----
2024-02-29 10:06 am S 4.1 5.1----30.11- 80.2 81.7----
2024-02-29 10:00 amSSW 5.1 5.1----30.11+0.04 80.2 81.9----
2024-02-29 09:54 am S 4.1 5.1----30.11- 80.4 81.9----
2024-02-29 09:48 amSSW 2.9 4.1----30.11- 80.8 81.9----
2024-02-29 09:42 amSSW 2.9 4.1----30.11- 80.6 81.7----
2024-02-29 09:36 am S 2.9 2.9----30.11- 80.8 81.7----
2024-02-29 09:30 am S 1.9 2.9----30.11- 81.7 81.7----
2024-02-29 09:24 am S 1.9 2.9----30.11- 81.5 81.5----
2024-02-29 09:18 am S 1.0 1.9----30.11- 82.6 81.5----
2024-02-29 09:12 am S 1.9 1.9----30.11- 82.4 81.5----
2024-02-29 09:06 am- 0.0 1.0----30.11- 82.6 81.5----
2024-02-29 09:00 am- 0.0 1.9----30.11+0.06 82.2 81.5----
2024-02-29 08:54 am N 1.9 2.9----30.11- 80.2 81.5----
2024-02-29 08:48 am N 1.9 2.9----30.11- 80.2 81.5----
2024-02-29 08:42 am N 1.9 2.9----30.10- 79.9 81.5----
2024-02-29 08:36 amNNW 2.9 4.1----30.10- 79.7 81.5----
2024-02-29 08:30 am N 1.9 2.9----30.10- 80.1 81.5----
2024-02-29 08:24 am N 1.9 4.1----30.10- 79.0 81.5----
2024-02-29 08:18 am- 0.0 5.1----30.09- 78.1 81.5----
2024-02-29 08:12 amNNE 2.9 5.1----30.09- 76.6 81.5----
2024-02-29 08:06 am N 2.9 5.1----30.09- 77.0 81.5----
2024-02-29 08:00 am N 2.9 5.1----30.09+0.05 76.5 81.5----
2024-02-29 07:54 am N 1.9 4.1----30.09- 76.1 81.3----
2024-02-29 07:48 amNNE 2.9 4.1----30.09- 75.4 81.5----
2024-02-29 07:42 am N 2.9 5.1----30.08- 74.8 81.5----
2024-02-29 07:36 am N 2.9 4.1----30.08- 74.3 81.5----
2024-02-29 07:30 am N 1.9 5.1----30.08- 73.6 81.5----
2024-02-29 07:24 am N 2.9 6.0----30.08- 72.9 81.5----
2024-02-29 07:18 am N 4.1 5.1----30.08- 72.5 81.5----
2024-02-29 07:12 am N 4.1 6.0----30.07- 72.1 81.5----
2024-02-29 07:06 am N 4.1 7.0----30.07- 72.3 81.5----
2024-02-29 07:00 am N 4.1 6.0----30.07+0.04- 81.5----
2024-02-29 06:54 am N 4.1 6.0----30.07-- 81.5----
2024-02-29 06:48 am N 5.1 6.0----30.06- 72.3 81.5----
2024-02-29 06:42 am N 5.1 6.0----30.06- 72.3 81.5----
2024-02-29 06:36 am N 4.1 6.0----30.06- 72.3 81.5----
2024-02-29 06:30 am N 2.9 5.1----30.06- 72.0 81.5----
2024-02-29 06:24 am N 4.1 6.0----30.06- 72.0 81.7----
2024-02-29 06:18 am N 5.1 6.0----30.06- 72.1 81.7----
2024-02-29 06:12 am N 1.9 5.1----30.05- 72.1 81.7----
2024-02-29 06:06 amNNE 2.9 5.1----30.05- 72.3 81.7----
2024-02-29 06:00 amNNE 4.1 6.0----30.05+0.01 72.9 81.7----
2024-02-29 05:54 am N 1.0 5.1----30.04- 73.4 81.7----
2024-02-29 05:48 am N 2.9 5.1----30.05- 73.4 81.7----
2024-02-29 05:42 am N 2.9 4.1----30.04- 73.4 81.7----
2024-02-29 05:36 amNNW 1.9 2.9----30.04- 73.8 81.7----
2024-02-29 05:30 amESE 1.0 2.9----30.04- 73.8 81.7----
2024-02-29 05:24 amSSE 1.9 4.1----30.04- 73.8 81.7----
2024-02-29 05:18 am N 1.9 5.1----30.04- 73.6 81.7----
2024-02-29 05:12 am N 2.9 4.1----30.03- 73.6 81.7----
2024-02-29 05:06 am N 2.9 6.0----30.03- 73.6 81.9----
2024-02-29 05:00 am N 4.1 5.1----30.03-0.02 73.6 81.9----
2024-02-29 04:54 am NE 1.9 2.9----30.03- 73.4 81.9----
2024-02-29 04:48 am- 0.0 1.0----30.03- 73.2 81.9----
2024-02-29 04:42 am- 0.0 1.9----30.03- 73.4 81.9----
2024-02-29 04:36 am- 0.0 4.1----30.03- 73.4 81.9----
2024-02-29 04:30 am N 2.9 5.1----30.03- 73.4 81.9----
2024-02-29 04:24 am N 4.1 6.0----30.03- 73.6 81.9----
2024-02-29 04:18 am N 4.1 7.0----30.03- 73.6 81.9----
2024-02-29 04:12 am N 4.1 6.0----30.03- 73.8 81.9----
2024-02-29 04:06 am N 5.1 7.0----30.03- 73.8 82.0----
2024-02-29 04:00 am N 4.1 6.0----30.03-0.04 73.9 82.0----
2024-02-29 03:54 am N 4.1 7.0----30.03- 74.1 82.0----
2024-02-29 03:48 am N 4.1 6.0----30.03- 73.8 82.0----
2024-02-29 03:42 am N 1.9 4.1----30.03- 73.6 82.0----
2024-02-29 03:36 am N 2.9 4.1----30.03- 73.4 82.0----
2024-02-29 03:30 am NE 1.9 2.9----30.03- 73.2 82.0----
2024-02-29 03:24 amNNE 1.9 5.1----30.04- 73.6 82.0----
2024-02-29 03:18 am N 1.9 4.1----30.04- 73.9 82.0----
2024-02-29 03:12 amNNE 2.9 5.1----30.04- 73.9 82.0----
2024-02-29 03:06 am N 2.9 4.1----30.04- 73.9 82.0----
2024-02-29 03:00 am N 1.0 4.1----30.04-0.03 73.9 82.0----
2024-02-29 02:54 am N 2.9 5.1----30.04- 73.9 82.0----
2024-02-29 02:48 am N 1.9 4.1----30.04- 74.3 82.0----
2024-02-29 02:42 am- 0.0 1.0----30.04- 73.9 82.0----
2024-02-29 02:36 am- 0.0 2.9----30.04- 74.1 82.2----
2024-02-29 02:30 am N 1.9 2.9----30.04- 74.1 82.0----
2024-02-29 02:24 amNNE 1.0 2.9----30.04- 73.8 82.2----
2024-02-29 02:18 am N 1.9 4.1----30.05- 73.8 82.2----
2024-02-29 02:12 am N 1.9 2.9----30.05- 74.1 82.2----
2024-02-29 02:06 amNNE 1.0 1.9----30.05- 74.5 82.2----
2024-02-29 02:00 amNNE 1.9 1.9----30.06-0.02 74.5 82.2----
2024-02-29 01:54 am- 0.0 1.9----30.06- 73.9 82.2----
2024-02-29 01:48 am E 1.0 2.9----30.06- 73.9 82.2----
2024-02-29 01:42 am- 0.0 1.0----30.06- 74.1 82.2----
2024-02-29 01:36 am- 0.0 1.0----30.06- 74.3 82.2----
2024-02-29 01:30 am- 0.0 1.9----30.06- 74.8 82.2----
2024-02-29 01:24 amWNW 1.0 2.9----30.06- 75.4 82.2----
2024-02-29 01:18 amWNW 2.9 2.9----30.06- 75.0 82.2----
2024-02-29 01:12 am W 1.9 2.9----30.06- 74.5 82.2----
2024-02-29 01:06 am- 0.0 1.0----30.06- 74.3 82.2----
2024-02-29 01:00 amWNW 1.0 1.9----30.06+0.00 74.1 82.2----
2024-02-29 12:54 am N 1.0 2.9----30.06- 73.9 82.2----
2024-02-29 12:48 am NE 1.0 2.9----30.06- 73.8 82.2----
2024-02-29 12:42 amNNE 1.9 2.9----30.07- 74.1 82.2----
2024-02-29 12:36 am NE 1.0 1.9----30.07- 74.7 82.2----
2024-02-29 12:30 am NE 1.0 2.9----30.07- 74.5 82.2----
2024-02-29 12:24 amNNE 1.0 1.9----30.07- 74.5 82.4----
2024-02-29 12:18 am- 0.0 1.0----30.07- 74.5 82.4----
2024-02-29 12:12 am- 0.0 1.0----30.07- 74.5 82.4----
2024-02-29 12:06 am- 0.0 2.9----30.07- 74.7 82.4----
2024-02-29 12:00 am N 1.9 2.9----30.07+0.03 74.8 82.4----
2024-02-28 11:54 pm N 1.9 2.9----30.07- 74.7 82.4----
2024-02-28 11:48 pmNNE 1.0 1.9----30.08- 74.3 82.4----
2024-02-28 11:42 pm- 0.0 1.0----30.07- 73.9 82.4----
2024-02-28 11:36 pm N 1.9 2.9----30.07- 74.1 82.4----
2024-02-28 11:30 pmNNE 1.9 2.9----30.07- 74.3 82.4----
2024-02-28 11:24 pmNNE 2.9 4.1----30.07- 74.1 82.4----
2024-02-28 11:18 pm N 2.9 4.1----30.07- 74.1 82.4----
2024-02-28 11:12 pm N 2.9 5.1----30.08- 74.3 82.4----
2024-02-28 11:06 pm N 2.9 5.1----30.07- 74.7 82.4----
2024-02-28 11:00 pmNNE 2.9 4.1----30.07+0.04 74.7 82.4----
2024-02-28 10:54 pm N 4.1 5.1----30.07- 75.0 82.4----
2024-02-28 10:48 pm N 2.9 2.9----30.07- 75.2 82.4----
2024-02-28 10:42 pm- 0.0 1.9----30.07- 75.6 82.4----
2024-02-28 10:36 pm- 0.0 1.0----30.07- 75.6 82.4----
2024-02-28 10:30 pm E 1.0 1.9----30.07- 75.6 82.4----
2024-02-28 10:24 pm- 0.0 1.0----30.07- 75.6 82.4----
2024-02-28 10:18 pm- 0.0 1.9----30.07- 75.7 82.4----
2024-02-28 10:12 pm- 0.0 1.0----30.07- 76.3 82.6----
2024-02-28 10:06 pm- 0.0 1.9----30.07- 76.3 82.4----
2024-02-28 10:00 pm- 0.0 1.9----30.07+0.05 76.3 82.6----
2024-02-28 09:54 pm- 0.0 1.9----30.07- 76.3 82.6----
2024-02-28 09:48 pm- 0.0 1.9----30.07- 76.3 82.4----
2024-02-28 09:42 pm- 0.0 1.9----30.07- 77.0 82.6----
2024-02-28 09:36 pmENE 1.0 4.1----30.07- 76.8 82.4----
2024-02-28 09:30 pm NE 1.9 4.1----30.07- 76.3 82.4----
2024-02-28 09:24 pm- 0.0 1.0----30.06- 76.6 82.4----
2024-02-28 09:18 pm- 0.0 1.9----30.06- 76.5 82.4----
2024-02-28 09:12 pm N 1.0 4.1----30.06- 76.5 82.4----
2024-02-28 09:06 pm N 2.9 5.1----30.05- 76.5 82.4----
2024-02-28 09:00 pm N 4.1 5.1----30.05+0.04 76.5 82.6----
2024-02-28 08:54 pmNNE 2.9 5.1----30.05- 76.3 82.6----
2024-02-28 08:48 pm N 4.1 7.0----30.04- 76.5 82.6----
2024-02-28 08:42 pm N 4.1 6.0----30.04- 76.6 82.6----
2024-02-28 08:36 pm N 5.1 6.0----30.04- 77.0 82.6----
2024-02-28 08:30 pm N 4.1 6.0----30.04- 77.2 82.6----
2024-02-28 08:24 pm N 4.1 5.1----30.03- 77.2 82.6----
2024-02-28 08:18 pm N 4.1 5.1----30.03- 77.4 82.6----
2024-02-28 08:12 pm N 2.9 5.1----30.03- 77.5 82.6----
2024-02-28 08:06 pm N 2.9 4.1----30.03- 77.7 82.6----
2024-02-28 08:00 pm N 2.9 4.1----30.03+0.03 77.9 82.6----
2024-02-28 07:54 pm N 2.9 4.1----30.03- 78.3 82.6----